TimePST,TemperatureF,Dew PointF,Humidity,Sea Level PressureIn,VisibilityMPH,Wind Direction,Wind SpeedMPH,Gust SpeedMPH,PrecipitationIn,Events,Conditions,WindDirDegrees,DateUTC
12:53 AM,30.9,27.0,85,30.27,9.0,SSE,5.8,-,N/A,,Overcast,150,2013-01-06 08:53:00
1:53 AM,30.9,27.0,85,30.27,10.0,Calm,Calm,-,N/A,,Overcast,0,2013-01-06 09:53:00
2:53 AM,30.0,27.0,88,30.25,8.0,Calm,Calm,-,N/A,,Overcast,0,2013-01-06 10:53:00
3:53 AM,30.9,27.0,85,30.25,8.0,Calm,Calm,-,N/A,,Overcast,0,2013-01-06 11:53:00
4:53 AM,30.0,26.1,85,30.25,10.0,Calm,Calm,-,N/A,,Overcast,0,2013-01-06 12:53:00
5:53 AM,28.9,26.1,89,30.23,10.0,Calm,Calm,-,N/A,,Clear,0,2013-01-06 13:53:00
6:53 AM,26.1,24.1,92,30.24,8.0,WNW,3.5,-,N/A,,Clear,290,2013-01-06 14:53:00
7:53 AM,26.1,24.1,92,30.25,7.0,West,5.8,-,N/A,,Partly Cloudy,260,2013-01-06 15:53:00
8:53 AM,28.0,25.0,88,30.27,7.0,WSW,8.1,-,N/A,,Clear,250,2013-01-06 16:53:00
9:53 AM,30.9,27.0,85,30.27,9.0,SW,5.8,-,N/A,,Clear,230,2013-01-06 17:53:00
10:31 AM,30.2,26.6,86,30.27,7.0,West,3.5,-,N/A,,Partly Cloudy,270,2013-01-06 18:31:00
10:53 AM,32.0,27.0,82,30.28,6.0,WNW,3.5,-,N/A,,Partly Cloudy,300,2013-01-06 18:53:00
11:20 AM,32.0,26.6,80,30.26,6.0,NW,4.6,-,N/A,,Mostly Cloudy,310,2013-01-06 19:20:00
11:53 AM,30.9,27.0,85,30.24,6.0,WSW,3.5,-,N/A,,Mostly Cloudy,240,2013-01-06 19:53:00
12:53 PM,32.0,28.0,85,30.22,10.0,NW,5.8,-,N/A,,Overcast,310,2013-01-06 20:53:00
1:53 PM,33.1,28.0,82,30.21,10.0,Calm,Calm,-,N/A,,Overcast,0,2013-01-06 21:53:00
2:53 PM,32.0,28.0,85,30.20,9.0,NW,4.6,-,N/A,,Mostly Cloudy,320,2013-01-06 22:53:00
3:53 PM,30.9,28.0,89,30.19,8.0,NE,3.5,-,N/A,,Mostly Cloudy,40,2013-01-06 23:53:00
4:00 PM,30.2,28.4,93,30.18,8.0,North,3.5,-,N/A,,Scattered Clouds,10,2013-01-07 00:00:00
4:53 PM,30.0,28.0,92,30.19,9.0,Calm,Calm,-,N/A,,Scattered Clouds,0,2013-01-07 00:53:00
5:53 PM,30.0,28.0,92,30.18,9.0,Calm,Calm,-,N/A,,Clear,0,2013-01-07 01:53:00
6:53 PM,30.0,28.0,92,30.18,8.0,Calm,Calm,-,N/A,,Partly Cloudy,0,2013-01-07 02:53:00
7:53 PM,30.0,28.0,92,30.17,7.0,Calm,Calm,-,N/A,,Scattered Clouds,0,2013-01-07 03:53:00
8:53 PM,30.0,28.0,92,30.17,7.0,Calm,Calm,-,N/A,,Clear,0,2013-01-07 04:53:00
9:53 PM,30.0,28.0,92,30.17,7.0,Calm,Calm,-,N/A,,Mostly Cloudy,0,2013-01-07 05:53:00
10:53 PM,30.0,28.9,96,30.14,6.0,Calm,Calm,-,N/A,,Overcast,0,2013-01-07 06:53:00
11:53 PM,30.9,28.9,92,30.13,6.0,Calm,Calm,-,N/A,,Overcast,0,2013-01-07 07:53:00